Home > Weather > Porsgrunn > Past weeks

Flag for Norway Weather for the Past 2 Weeks in Porsgrunn, Norway

Now
36 °F

Chilly.


Feels Like: 32 °F
Forecast: 23 / 32 °F
Wind: 5 mph from Northeast

Location: Jomfruland Fyr

Current Time: Feb 11, 2016 at 8:00:44 AM

Latest Report: Feb 11, 2016 at 7:00 AM


Visibility: N/A

Pressure: 29.41 "Hg

Humidity: 64%

Dew point: 25 °F

Location of PorsgrunnLocation

Historic Weather in Porsgrunn — Graph

°F

Porsgrunn Temperature Yesterday

Maximum temperature yesterday: 38 °F (at 3:00 PM)
Minimum temperature yesterday: 35 °F (at 8:00 PM)
Average temperature yesterday: 37 °F

High & Low Weather Summary for the Past Weeks

 TemperatureHumidityPressure
High45 °F (Jan 29, 4:00 PM)97% (Jan 27, 8:00 PM)29.95 "Hg (Jan 27, 8:00 PM)
Low32 °F (Feb 5, 7:00 AM)38% (Feb 4, 4:00 PM)28.73 "Hg (Feb 9, 3:00 AM)
Average39 °F80%29.27 "Hg
* Reported Jan 27 5:00 AM — Feb 11 4:00 AM, Porsgrunn, Weather by CustomWeather, © 2016

Note: Actual official high and low records may vary slightly from our data, if they occured in-between our weather recording intervals... More about our weather records

Advertising

Porsgrunn Weather History for the Previous 24 Hours

 ConditionsComfort  
Time TempWeatherWind HumidityBarometerVisibility
4:00 AM
Thu, Feb 11
36 °FChilly.5 mph70%29.35 "HgN/A
2:00 AM34 °FChilly.2 mph82%29.32 "HgN/A
12:00 AM35 °FChilly.2 mph80%29.29 "HgN/A
10:00 PM
Wed, Feb 10
36 °FChilly.2 mph84%29.26 "HgN/A
9:00 PM36 °FChilly.1 mph87%29.23 "HgN/A
8:00 PM35 °FChilly.1 mph88%29.21 "HgN/A
7:00 PM37 °FChilly.1 mph83%29.21 "HgN/A
6:00 PM37 °FChilly.2 mph82%29.18 "HgN/A
5:00 PM38 °FChilly.2 mph81%29.15 "HgN/A
4:00 PM38 °FChilly.2 mph79%29.15 "HgN/A
3:00 PM38 °FChilly.2 mph79%29.12 "HgN/A
2:00 PM38 °FChilly.3 mph79%29.09 "HgN/A
1:00 PM38 °FChilly.3 mph82%29.09 "HgN/A
12:00 PM37 °FChilly.2 mph85%29.06 "HgN/A
11:00 AM37 °FChilly.2 mph88%29.06 "HgN/A
10:00 AM36 °FChilly.2 mph92%29.06 "HgN/A
9:00 AM36 °FChilly.2 mph94%29.03 "HgN/A
8:00 AM37 °FChilly.5 mph95%29.03 "HgN/A
Weather by CustomWeather, © 2016

See weather overviewHow to use our weather pages